Preview of NWS' New Version of Forecast
This preview is not operational and should not be used for support decisions.

Regional Weather Roundup (RWR)

Issued by National Weather Service (NWS)

                            
000
ASUS45 KCYS 240710
RWRWY 

WYOMING REGIONAL WEATHER ROUNDUP
NATIONAL WEATHER SERVICE CHEYENNE WY
100 AM MDT FRI MAY 24 2019

NOTE:  "FAIR" INDICATES FEW OR NO CLOUDS BELOW 12,000 FEET
WITH NO SIGNIFICANT WEATHER AND/OR OBSTRUCTIONS TO VISIBILITY.

WYZ001-240800-
...YELLOWSTONE NATIONAL PARK...
  
CITY           SKY/WX    TMP DP  RH WIND       PRES   REMARKS
LK YELLOWSTONE NOT AVBL                                               
W YELLOWSTONE  NOT AVBL                                               

$$
WYZ002>013-054>058-071-098>099-240800-
...NORTHERN WYOMING...
  
CITY           SKY/WX    TMP DP  RH WIND       PRES   REMARKS
JACKSON        LGT SNOW  34  32  93 S6        29.87R FOG     WCI  29  
CODY           LGT RAIN  39  37  92 SW8       29.81F WCI  33          
GREYBULL       LGT RAIN  44  42  93 SW6       29.79F                  
WORLAND        LGT RAIN  39  38  96 SW8       29.81F WCI  33          
SHERIDAN       LGT RAIN  42  40  92 CALM      29.78F                  
BUFFALO        LGT RAIN  39  37  92 NW12      29.74F WCI  32          
GILLETTE       CLOUDY    43  41  93 SE18G26   29.72F                  
HULETT         DRIZZLE   41  39  93 E6        29.79F                  
NEWCASTLE      CLOUDY    43  39  87 SE16G23   29.82F                  

$$
WYZ014>020-022>026-101>103-240800-
...CENTRAL WYOMING...
  
CITY           SKY/WX    TMP DP  RH WIND       PRES   REMARKS
BIG PINEY      CLOUDY    33  31  92 S8        29.89S WCI  26          
PINEDALE       LGT SNOW  32  32 100 SE6       29.89S WCI  26          
DUBOIS         LGT SNOW  32  30  93 NW5       29.83F WCI  27          
LANDER         CLOUDY    33  32  96 CALM      29.83F                  
RIVERTON       CLOUDY    33  32  96 S6        29.84F WCI  28          
CASPER         CLOUDY    37  36  96 W7        29.82F WCI  32          
DOUGLAS        MOCLDY    41  38  89 S12       29.83F                  

$$
WYZ021-027>030-104>119-240800-
...SOUTHERN WYOMING...
  
CITY           SKY/WX    TMP DP  RH WIND       PRES   REMARKS
EVANSTON       MOCLDY    34  31  88 SW9       29.93S WCI  27          
KEMMERER       CLEAR     32  30  93 W9        29.92S WCI  24          
FORT BRIDGER   NOT AVBL                                               
ROCK SPRINGS   CLOUDY    36  33  89 SW13      29.92R WCI  27          
DIXON          LGT RAIN  40  31  70 S20G31    29.99F WCI  31          
RAWLINS        PTCLDY    38  31  76 SW22G36   29.90R WCI  27          
SARATOGA       MOCLDY    37  32  81 S9G16     29.95R WCI  31          
LARAMIE        MOCLDY    35  35 100 SW16      29.91F WCI  25          
CHEYENNE       CLOUDY    38  36  92 S14G23    29.92S WCI  30          
TORRINGTON     PTCLDY    44  41  89 E5        29.86F                  
PINE BLUFFS    CLOUDY    41  41 100 S14       29.93F                  

$$
  

000
ASUS45 KCYS 240710
RWRWY 

WYOMING REGIONAL WEATHER ROUNDUP
NATIONAL WEATHER SERVICE CHEYENNE WY
100 AM MDT FRI MAY 24 2019

NOTE:  "FAIR" INDICATES FEW OR NO CLOUDS BELOW 12,000 FEET
WITH NO SIGNIFICANT WEATHER AND/OR OBSTRUCTIONS TO VISIBILITY.

WYZ001-240800-
YELLOWSTONE NATIONAL PARK
  
CITY           SKY/WX    TMP DP  RH WIND       PRES   REMARKS
LK YELLOWSTONE NOT AVBL                                               
W YELLOWSTONE  NOT AVBL                                               

$$
WYZ002>013-054>058-071-098>099-240800-
NORTHERN WYOMING
  
CITY           SKY/WX    TMP DP  RH WIND       PRES   REMARKS
JACKSON        LGT SNOW  34  32  93 S6        29.87R FOG     WCI  29  
CODY           LGT RAIN  39  37  92 SW8       29.81F WCI  33          
GREYBULL       LGT RAIN  44  42  93 SW6       29.79F                  
WORLAND        LGT RAIN  39  38  96 SW8       29.81F WCI  33          
SHERIDAN       LGT RAIN  42  40  92 CALM      29.78F                  
BUFFALO        LGT RAIN  39  37  92 NW12      29.74F WCI  32          
GILLETTE       CLOUDY    43  41  93 SE18G26   29.72F                  
HULETT         DRIZZLE   41  39  93 E6        29.79F                  
NEWCASTLE      CLOUDY    43  39  87 SE16G23   29.82                   

$$
WYZ014>020-022>026-101>103-240800-
CENTRAL WYOMING
  
CITY           SKY/WX    TMP DP  RH WIND       PRES   REMARKS
BIG PINEY      CLOUDY    33  31  92 S8        29.89S WCI  26          
PINEDALE       LGT SNOW  32  32 100 SE6       29.89S WCI  26          
DUBOIS         LGT SNOW  32  30  93 NW5       29.83F WCI  27          
LANDER         FAIR      33  32  96 CALM      29.83F                  
RIVERTON       FAIR      33  32  96 S6        29.84F WCI  28          
CASPER         CLOUDY    37  36  96 W7        29.82F WCI  32          
DOUGLAS        MOCLDY    41  38  89 S12       29.83F                  

$$
WYZ021-027>030-104>119-240800-
SOUTHERN WYOMING
  
CITY           SKY/WX    TMP DP  RH WIND       PRES   REMARKS
EVANSTON       MOCLDY    34  31  88 SW9       29.93  WCI  27          
KEMMERER       FAIR      32  32 100 SW9       29.92S WCI  24          
ROCK SPRINGS   CLOUDY    36  33  89 SW13      29.92R WCI  27          
DIXON          LGT RAIN  40  31  70 S20G31    29.99F WCI  31          
RAWLINS        FAIR      38  31  76 SW22G36   29.90R WCI  27          
SARATOGA       PTSUNNY   37  32  81 S9G16     29.95R WCI  31          
LARAMIE        MOCLDY    35  35 100 SW16      29.91F WCI  25          
CHEYENNE       CLOUDY    38  36  92 S14G23    29.92S WCI  30          
TORRINGTON     FAIR      44  41  89 E5        29.86F                  
PINE BLUFFS    CLOUDY    41  41 100 S14       29.93F                  

$$